This is the latest recevied weather packets stored in our database for station/object IW2NTF-3. If no packets are shown the sender has not sent any weather packets the latest 10 day(s).
| Time | Temp. | Humidity | Pressure | Rain* | Wind** | Luminosity | Snow |
|---|---|---|---|---|---|---|---|
| 1787933403 | 23.89° C | 80% | 1012.2 hPa | 0.51 mm | - | 193 W/m² | - |
| 1787933343 | 23.89° C | 80% | 1012.2 hPa | 0.51 mm | - | 193 W/m² | - |
| 1787933283 | 23.89° C | 81% | 1012.2 hPa | 0.51 mm | - | 193 W/m² | - |
| 1787933223 | 23.89° C | 81% | 1012.2 hPa | 0.51 mm | - | 250 W/m² | - |
| 1787933163 | 23.89° C | 82% | 1012.2 hPa | 0.51 mm | - | 329 W/m² | - |
| 1787933103 | 23.89° C | 81% | 1012.4 hPa | 0.51 mm | - | 362 W/m² | - |
| 1787933043 | 23.89° C | 81% | 1012.6 hPa | 0.51 mm | - | 401 W/m² | - |
| 1787932983 | 23.89° C | 81% | 1012.6 hPa | 0.51 mm | - | 413 W/m² | - |
| 1787932923 | 23.89° C | 81% | 1012.6 hPa | 0.51 mm | - | 417 W/m² | - |
| 1787932863 | 23.33° C | 81% | 1012.6 hPa | 0.51 mm | - | 367 W/m² | - |
| 1787932804 | 23.33° C | 81% | 1012.9 hPa | 0.51 mm | - | 336 W/m² | - |
| 1787932743 | 23.33° C | 81% | 1012.9 hPa | 0.51 mm | - | 401 W/m² | - |
| 1787932683 | 23.33° C | 81% | 1012.9 hPa | 0.51 mm | - | 408 W/m² | - |
| 1787932623 | 23.33° C | 81% | 1012.6 hPa | 0.51 mm | - | 417 W/m² | - |
| 1787932563 | 23.33° C | 81% | 1012.5 hPa | 0.51 mm | - | 422 W/m² | - |
| 1787932503 | 23.33° C | 81% | 1012.5 hPa | 0.51 mm | - | 420 W/m² | - |
| 1787932443 | 23.33° C | 81% | 1012.5 hPa | 0.51 mm | - | 413 W/m² | - |
| 1787932384 | 23.33° C | 80% | 1012.5 hPa | 0.51 mm | - | 411 W/m² | - |
| 1787932323 | 23.33° C | 80% | 1012.7 hPa | 0.51 mm | - | 425 W/m² | - |
| 1787932263 | 23.33° C | 81% | 1012.6 hPa | 0.51 mm | - | 418 W/m² | - |
| 1787932203 | 23.33° C | 81% | 1012.6 hPa | 0.51 mm | - | 403 W/m² | - |
| 1787932143 | 23.33° C | 80% | 1012.5 hPa | 0.51 mm | - | 403 W/m² | - |
| 1787932083 | 23.33° C | 80% | 1012.5 hPa | 0.51 mm | - | 390 W/m² | - |
| 1787932023 | 23.33° C | 81% | 1012.9 hPa | 0.51 mm | - | 387 W/m² | - |
| 1787931963 | 23.33° C | 80% | 1013.1 hPa | 0.51 mm | - | 378 W/m² | - |
* Rain latest hour (hover to see other rain measurements)
** Current wind speed in m/s (hover to see current wind gust speed)